OE2ATN Weather Reports


Display with metric or nautical units.
time (UTC)temp
F
wind
direction
speed
MPH
gust
MPH
rain 1hr
in
rain 24hr
in
rain mn
in
humidity
%
barometer
mb
20260505192006 56 298 0.0 4.0 0.00 0.00 0.00 62 1015.1
20260505191506 56 316 1.0 5.0 0.00 0.00 0.00 62 1015.2
20260505191005 56 10 1.0 5.0 0.00 0.00 0.00 63 1015.1
20260505190506 56 286 3.0 5.0 0.00 0.00 0.00 62 1015.0
20260505190006 56 314 0.0 7.0 0.00 0.00 0.00 62 1014.9
20260505185506 56 306 2.0 7.0 0.00 0.00 0.00 62 1015.0
20260505185005 57 290 2.0 4.0 0.00 0.00 0.00 60 1014.8
20260505184505 57 314 0.0 3.0 0.00 0.00 0.00 60 1014.8
20260505184006 57 309 1.0 3.0 0.00 0.00 0.00 61 1014.7
20260505183506 57 6 1.0 5.0 0.00 0.00 0.00 62 1014.6
20260505183005 57 283 2.0 5.0 0.00 0.00 0.00 60 1014.5
20260505182505 58 276 1.0 5.0 0.00 0.00 0.00 57 1014.7
20260505182005 58 302 0.0 4.0 0.00 0.00 0.00 59 1014.5
20260505181504 60 296 1.0 4.0 0.00 0.00 0.00 56 1014.4
20260505181005 60 307 1.0 3.0 0.00 0.00 0.00 55 1014.4
20260505180505 60 309 1.0 3.0 0.00 0.00 0.00 54 1014.3
20260505180007 61 305 1.0 3.0 0.00 0.00 0.00 53 1014.3
20260505175504 61 302 2.0 3.0 0.00 0.00 0.00 53 1014.3
20260505175004 62 302 1.0 3.0 0.00 0.00 0.00 52 1014.3
20260505174504 62 329 0.0 3.0 0.00 0.00 0.00 51 1014.3
20260505174004 63 274 1.0 3.0 0.00 0.00 0.00 50 1014.2
20260505173503 63 299 0.0 4.0 0.00 0.00 0.00 50 1014.0
20260505173003 64 34 1.0 4.0 0.00 0.00 0.00 49 1014.2
20260505172504 64 324 1.0 4.0 0.00 0.00 0.00 49 1014.3
20260505172003 65 300 2.0 4.0 0.00 0.00 0.00 46 1014.0
20260505171504 66 305 2.0 4.0 0.00 0.00 0.00 46 1014.0
20260505171004 67 299 1.0 4.0 0.00 0.00 0.00 46 1014.3
20260505170503 67 327 0.0 6.0 0.00 0.00 0.00 45 1014.2
20260505170003 66 97 1.0 9.0 0.00 0.00 0.00 45 1014.2
20260505165503 66 97 2.0 9.0 0.00 0.00 0.00 45 1014.2
20260505165003 66 106 4.0 7.0 0.00 0.00 0.00 46 1014.3
20260505164502 66 134 6.0 7.0 0.00 0.00 0.00 43 1014.2
20260505164003 66 151 4.0 6.0 0.00 0.00 0.00 44 1014.3
20260505163503 67 114 2.0 7.0 0.00 0.00 0.00 45 1014.3
20260505163003 66 82 5.0 9.0 0.00 0.00 0.00 46 1014.4
20260505162502 66 113 5.0 9.0 0.00 0.00 0.00 46 1014.5
20260505162002 66 107 4.0 9.0 0.00 0.00 0.00 47 1014.5
20260505161502 66 135 4.0 9.0 0.00 0.00 0.00 47 1014.7
20260505161003 66 130 6.0 9.0 0.00 0.00 0.00 45 1014.7
20260505160501 66 124 4.0 11.0 0.00 0.00 0.00 46 1014.8
20260505153002 66 113 5.0 7.0 0.00 0.00 0.00 47 1014.8
20260505152501 66 71 4.0 5.0 0.00 0.00 0.00 46 1014.9
20260505152001 66 241 0.0 3.0 0.00 0.00 0.00 44 1014.9
20260505151500 66 295 0.0 6.0 0.00 0.00 0.00 44 1015.0
20260505151000 66 6 1.0 9.0 0.00 0.00 0.00 42 1014.9
20260505150501 66 282 4.0 10.0 0.00 0.00 0.00 43 1014.9
20260505140500 68 199 1.0 6.0 0.00 0.00 0.00 45 1014.4
20260505124958 70 228 2.0 5.0 0.00 0.00 0.00 40 1014.6
20260505124458 69 226 0.0 5.0 0.00 0.00 0.00 40 1014.5
20260505123958 69 100 3.0 11.0 0.00 0.00 0.00 40 1014.4
20260505123458 69 114 7.0 11.0 0.00 0.00 0.00 40 1014.6
20260505122958 69 75 5.0 9.0 0.00 0.00 0.00 39 1014.5
20260505122458 70 121 5.0 7.0 0.00 0.00 0.00 42 1014.4
20260505121957 70 111 4.0 10.0 0.00 0.00 0.00 38 1014.5
20260505121457 70 168 7.0 10.0 0.00 0.00 0.00 38 1014.5
20260505120957 71 118 1.0 10.0 0.00 0.00 0.00 35 1014.5
20260505120457 70 182 2.0 10.0 0.00 0.00 0.00 42 1014.6
20260505115957 70 94 7.0 10.0 0.00 0.00 0.00 38 1014.4
20260505115457 70 128 6.0 9.0 0.00 0.00 0.00 37 1014.5
20260505114957 71 114 5.0 10.0 0.00 0.00 0.00 35 1014.5
20260505114455 71 140 5.0 13.0 0.00 0.00 0.00 36 1014.6
20260505113955 72 127 6.0 13.0 0.00 0.00 0.00 34 1014.6
20260505113455 72 82 6.0 12.0 0.00 0.00 0.00 36 1014.5
20260505112956 73 99 6.0 11.0 0.00 0.00 0.00 35 1014.5
20260505112457 73 161 6.0 11.0 0.00 0.00 0.00 30 1014.6
20260505111956 72 116 6.0 14.0 0.00 0.00 0.00 33 1014.6
20260505111456 72 107 3.0 14.0 0.00 0.00 0.00 33 1014.7
20260505110955 72 109 3.0 12.0 0.00 0.00 0.00 33 1014.7
20260505110456 72 79 6.0 11.0 0.00 0.00 0.00 34 1014.7
20260505101957 71 90 5.0 10.0 0.00 0.00 0.00 35 1015.3
20260505101455 70 107 2.0 11.0 0.00 0.00 0.00 33 1015.4
20260505100954 70 102 5.0 13.0 0.00 0.00 0.00 36 1015.6
20260505100454 70 117 8.0 13.0 0.00 0.00 0.00 39 1015.4
20260505095956 70 114 6.0 11.0 0.00 0.00 0.00 35 1015.6
20260505095455 70 102 4.0 11.0 0.00 0.00 0.00 36 1015.7
20260505094954 70 106 7.0 10.0 0.00 0.00 0.00 35 1015.7
20260505094454 70 103 2.0 10.0 0.00 0.00 0.00 34 1015.7
20260505093954 69 96 6.0 11.0 0.00 0.00 0.00 33 1015.8
20260505093453 70 131 5.0 11.0 0.00 0.00 0.00 36 1015.8
20260505092954 70 66 2.0 7.0 0.00 0.00 0.00 33 1015.8
20260505092453 69 100 4.0 7.0 0.00 0.00 0.00 34 1015.9
20260505091953 69 123 4.0 7.0 0.00 0.00 0.00 34 1015.9
20260505091454 70 116 3.0 7.0 0.00 0.00 0.00 38 1016.0
20260505090953 69 130 3.0 6.0 0.00 0.00 0.00 38 1016.1
20260505090453 68 58 3.0 7.0 0.00 0.00 0.00 38 1016.2
20260505085953 67 93 4.0 9.0 0.00 0.00 0.00 42 1016.2
20260505085453 67 99 5.0 9.0 0.00 0.00 0.00 46 1016.2
20260505084952 65 97 5.0 7.0 0.00 0.00 0.00 53 1016.3
20260505084452 65 147 2.0 5.0 0.00 0.00 0.00 54 1016.3
20260505083953 64 117 0.0 3.0 0.00 0.00 0.00 54 1016.3
20260505083453 64 154 0.0 1.0 0.00 0.00 0.00 54 1016.4
20260505082952 64 149 0.0 1.0 0.00 0.00 0.00 54 1016.6
20260505082452 63 298 0.0 1.0 0.00 0.00 0.00 51 1016.6
20260505081952 62 134 0.0 2.0 0.00 0.00 0.00 52 1016.7
20260505081452 62 154 0.0 3.0 0.00 0.00 0.00 52 1016.9
20260505080952 62 127 0.0 3.0 0.00 0.00 0.00 54 1016.9
20260505080452 61 137 0.0 2.0 0.00 0.00 0.00 55 1017.0
20260505075951 61 94 0.0 0.0 0.00 0.00 0.00 53 1017.0
20260505075451 61 252 0.0 0.0 0.00 0.00 0.00 55 1017.1
20260505074951 60 169 0.0 0.0 0.00 0.00 0.00 55 1017.2
20260505074451 58 168 0.0 2.0 0.00 0.00 0.00 60 1017.2
20260505073951 58 200 0.0 2.0 0.00 0.00 0.00 62 1017.3
20260505073451 57 142 0.0 2.0 0.00 0.00 0.00 61 1017.3
20260505072951 57 151 1.0 5.0 0.00 0.00 0.00 63 1017.4
20260505072451 57 121 1.0 6.0 0.00 0.00 0.00 63 1017.4
20260505071951 57 133 4.0 6.0 0.00 0.00 0.00 61 1017.4
20260505071451 56 152 2.0 5.0 0.00 0.00 0.00 64 1017.5
20260505070950 56 133 0.0 1.0 0.00 0.00 0.00 64 1017.6
20260505070451 56 109 0.0 0.0 0.00 0.00 0.00 63 1017.6
20260505065950 56 134 0.0 0.0 0.00 0.00 0.00 63 1017.7
20260505065450 55 226 0.0 0.0 0.00 0.00 0.00 66 1017.9
20260505064950 55 27 0.0 0.0 0.00 0.00 0.00 63 1017.9
20260505064450 55 127 0.0 0.0 0.00 0.00 0.00 64 1018.0
20260505063950 54 130 0.0 1.0 0.00 0.00 0.00 65 1017.9
20260505063449 54 118 0.0 1.0 0.00 0.00 0.00 67 1018.0
20260505062950 53 244 0.0 0.0 0.00 0.00 0.00 70 1018.1
20260505062449 53 212 0.0 0.0 0.00 0.00 0.00 72 1018.3
20260505061950 52 196 0.0 0.0 0.00 0.00 0.00 72 1018.4
20260505061449 51 196 0.0 0.0 0.00 0.00 0.00 72 1018.3
20260505060949 51 159 0.0 2.0 0.00 0.00 0.00 73 1018.3
20260505060449 51 149 0.0 3.0 0.00 0.00 0.00 73 1018.4
20260505055950 51 113 2.0 3.0 0.00 0.00 0.00 72 1018.4
20260505055449 51 138 0.0 1.0 0.00 0.00 0.00 70 1018.3
20260505054948 52 116 0.0 0.0 0.00 0.00 0.00 71 1018.4
20260505054448 51 275 0.0 0.0 0.00 0.00 0.00 70 1018.4
20260505053948 52 107 0.0 0.0 0.00 0.00 0.00 71 1018.3
20260505053448 50 107 0.0 0.0 0.00 0.00 0.00 75 1018.3
20260505052948 49 106 0.0 0.0 0.00 0.00 0.00 75 1018.3
20260505052448 48 116 0.0 1.0 0.00 0.00 0.00 75 1018.3
20260505051948 48 71 0.0 1.0 0.00 0.00 0.00 75 1018.4
20260505051448 48 82 0.0 1.0 0.00 0.00 0.00 75 1018.4
20260505050948 47 292 0.0 0.0 0.00 0.00 0.00 75 1018.4
20260505050447 46 312 0.0 0.0 0.00 0.00 0.00 75 1018.4
20260505041444 45 293 0.0 2.0 0.00 0.00 0.00 75 1018.4
20260505040945 45 292 1.0 2.0 0.00 0.00 0.00 75 1018.4
20260505040445 45 298 1.0 2.0 0.00 0.00 0.00 75 1018.5
20260505035944 45 288 0.0 1.0 0.00 0.00 0.00 75 1018.4
20260505035445 45 288 0.0 1.0 0.00 0.00 0.00 75 1018.4
20260505034945 45 288 0.0 0.0 0.00 0.00 0.00 75 1018.4
20260505034444 45 288 0.0 2.0 0.00 0.00 0.00 75 1018.4
20260505033944 45 288 0.0 2.0 0.00 0.00 0.00 75 1018.6
20260505033444 45 305 0.0 3.0 0.00 0.00 0.00 75 1018.6
20260505032944 45 11 0.0 3.0 0.00 0.00 0.00 75 1018.5
20260505032444 45 285 1.0 3.0 0.00 0.00 0.00 75 1018.5
20260505031944 45 295 2.0 3.0 0.00 0.00 0.00 75 1018.5
20260505031444 46 289 1.0 3.0 0.00 0.00 0.00 75 1018.6
20260505030944 46 305 0.0 0.0 0.00 0.00 0.00 75 1018.6
20260505030443 46 305 0.0 2.0 0.00 0.00 0.00 75 1018.7
20260505025943 46 305 0.0 3.0 0.00 0.00 0.00 75 1018.7
20260505025442 46 290 1.0 3.0 0.00 0.00 0.00 75 1018.7
20260505024943 46 278 0.0 1.0 0.00 0.00 0.00 75 1018.8
20260505024443 46 329 0.0 2.0 0.00 0.00 0.00 75 1018.8
20260505023943 47 288 0.0 3.0 0.00 0.00 0.00 75 1018.8
20260505023443 46 298 2.0 3.0 0.00 0.00 0.00 75 1018.9
20260505022943 46 313 2.0 3.0 0.00 0.00 0.00 75 1018.8
20260505022443 47 295 0.0 1.0 0.00 0.00 0.00 74 1018.8
20260505021942 47 302 0.0 1.0 0.00 0.00 0.00 74 1018.9
20260505021442 47 302 0.0 3.0 0.00 0.00 0.00 74 1018.9
20260505020943 47 300 0.0 3.0 0.00 0.00 0.00 75 1019.0
20260505020442 47 288 2.0 3.0 0.00 0.00 0.00 75 1019.0
20260505015942 48 298 0.0 1.0 0.00 0.00 0.00 73 1019.0
20260505015442 48 296 0.0 1.0 0.00 0.00 0.00 73 1019.0
20260505014942 48 295 0.0 3.0 0.00 0.00 0.00 74 1019.1
20260505014442 48 295 0.0 3.0 0.00 0.00 0.00 74 1019.1
20260505013942 48 276 0.0 2.0 0.00 0.00 0.00 72 1019.0
20260505013442 48 331 0.0 1.0 0.00 0.00 0.00 73 1019.0
20260505012942 49 93 0.0 0.0 0.00 0.00 0.00 72 1019.0
20260505012440 49 93 0.0 0.0 0.00 0.00 0.00 71 1019.0
20260505011941 49 93 0.0 1.0 0.00 0.00 0.00 71 1019.1
20260505011441 49 93 0.0 1.0 0.00 0.00 0.00 71 1019.1
20260505010940 50 290 0.0 1.0 0.00 0.00 0.00 71 1019.2
20260505010441 50 290 0.0 1.0 0.00 0.00 0.00 71 1019.2
20260505005941 50 290 0.0 1.0 0.00 0.00 0.00 69 1019.1
20260505005440 51 313 0.0 0.0 0.00 0.00 0.00 69 1019.2
20260505004941 51 285 0.0 0.0 0.00 0.00 0.00 69 1019.2
20260505004440 51 285 0.0 1.0 0.00 0.00 0.00 69 1019.2
20260505003941 51 288 0.0 2.0 0.00 0.00 0.00 68 1019.2
20260505003441 51 302 0.0 3.0 0.00 0.00 0.00 67 1019.2
20260505002940 51 321 1.0 3.0 0.00 0.00 0.00 68 1019.3
20260505002440 51 288 1.0 2.0 0.00 0.00 0.00 69 1019.4
20260505001940 51 293 0.0 1.0 0.00 0.00 0.00 69 1019.4
20260505001440 52 300 0.0 1.0 0.00 0.00 0.00 68 1019.4
20260505000940 51 302 0.0 3.0 0.00 0.00 0.00 68 1019.4
20260505000440 51 302 0.0 3.0 0.00 0.00 0.00 68 1019.6
20260504235939 52 295 0.0 1.0 0.00 0.00 0.00 68 1019.6
20260504235439 51 303 0.0 2.0 0.00 0.00 0.00 68 1019.7
20260504234940 51 305 0.0 2.0 0.00 0.00 0.00 68 1019.6
20260504234439 51 285 0.0 2.0 0.00 0.00 0.00 68 1019.7
20260504233939 52 351 0.0 0.0 0.00 0.00 0.00 67 1019.7
20260504233439 52 0 0.0 1.0 0.00 0.00 0.00 67 1019.7
20260504232939 52 0 0.0 2.0 0.00 0.00 0.00 68 1019.8
20260504232439 52 321 0.0 2.0 0.00 0.00 0.00 67 1019.8
20260504231939 52 251 0.0 2.0 0.00 0.00 0.00 67 1019.8
20260504231438 52 295 0.0 1.0 0.00 0.00 0.00 66 1019.9
20260504230938 53 289 0.0 1.0 0.00 0.00 0.00 65 1020.0
20260504230439 53 96 0.0 0.0 0.00 0.00 0.00 64 1019.9
20260504225938 53 97 0.0 1.0 0.00 0.00 0.00 64 1019.9
20260504225438 53 97 0.0 2.0 0.00 0.00 0.00 64 1020.0
20260504224938 54 299 1.0 2.0 0.00 0.00 0.00 64 1020.1
20260504224438 53 355 0.0 1.0 0.00 0.00 0.00 64 1020.0
20260504223938 54 120 0.0 2.0 0.00 0.00 0.00 64 1020.1
20260504223437 54 52 0.0 2.0 0.00 0.00 0.00 62 1020.1
20260504222938 55 290 0.0 2.0 0.00 0.00 0.00 59 1020.1
20260504222438 56 353 0.0 1.0 0.00 0.00 0.00 59 1020.1
20260504221937 57 309 0.0 3.0 0.00 0.00 0.00 56 1020.1
20260504221437 57 312 0.0 3.0 0.00 0.00 0.00 55 1020.1
20260504220937 56 341 1.0 5.0 0.00 0.00 0.00 57 1020.1
20260504220438 56 320 1.0 5.0 0.00 0.00 0.00 59 1020.2
20260504215937 56 299 3.0 5.0 0.00 0.00 0.00 58 1020.2
20260504215437 56 295 1.0 5.0 0.00 0.00 0.00 57 1020.2
20260504214936 56 289 3.0 5.0 0.00 0.00 0.00 58 1020.2
20260504214437 56 298 1.0 4.0 0.00 0.00 0.00 58 1020.2
20260504213937 55 320 2.0 4.0 0.00 0.00 0.00 60 1020.2
20260504213437 56 303 1.0 2.0 0.00 0.00 0.00 59 1020.2
20260504212936 56 338 0.0 1.0 0.00 0.00 0.00 58 1020.3
20260504212436 56 310 0.0 0.0 0.00 0.00 0.00 58 1020.3
20260504211937 56 295 0.0 4.0 0.00 0.00 0.00 58 1020.3
20260504211436 56 295 1.0 4.0 0.00 0.00 0.00 58 1020.3
20260504210936 56 4 0.0 1.0 0.00 0.00 0.00 57 1020.3
20260504210436 57 290 0.0 4.0 0.00 0.00 0.00 57 1020.3
20260504205936 57 314 1.0 4.0 0.00 0.00 0.00 57 1020.4
20260504205436 58 283 0.0 3.0 0.00 0.00 0.00 54 1020.3
20260504204936 58 305 0.0 2.0 0.00 0.00 0.00 54 1020.2
20260504204435 58 286 0.0 3.0 0.00 0.00 0.00 54 1020.3
20260504203935 58 314 0.0 5.0 0.00 0.00 0.00 53 1020.2
20260504203436 58 306 3.0 5.0 0.00 0.00 0.00 54 1020.2
20260504202935 59 278 0.0 3.0 0.00 0.00 0.00 50 1020.2
20260504202435 59 14 0.0 2.0 0.00 0.00 0.00 51 1020.2
20260504201935 60 285 0.0 2.0 0.00 0.00 0.00 51 1020.2
20260504201435 60 300 0.0 3.0 0.00 0.00 0.00 50 1020.2
20260504200935 60 309 0.0 3.0 0.00 0.00 0.00 50 1020.1
20260504200435 60 296 0.0 1.0 0.00 0.00 0.00 49 1020.0
20260504195935 60 37 0.0 4.0 0.00 0.00 0.00 48 1020.0
20260504195434 60 37 0.0 5.0 0.00 0.00 0.00 48 1020.1
20260504194934 62 288 3.0 5.0 0.00 0.00 0.00 45 1020.0
20260504194435 63 307 1.0 4.0 0.00 0.00 0.00 42 1020.0
20260504193934 63 302 2.0 4.0 0.00 0.00 0.00 41 1020.0
20260504193435 63 312 1.0 6.0 0.00 0.00 0.00 43 1020.0
20260504192934 63 329 2.0 6.0 0.00 0.00 0.00 42 1019.9
20260504192435 63 303 2.0 4.0 0.00 0.00 0.00 43 1019.9